Powrót do katalogu

SL-6 R/B(2)

AktywnyHEO
NORAD 16402·ROCKET BODY·🇷🇺 Russia

Wystrzelony Dec 24, 1985 z Plesetsk Cosmodrome

Loading…

Następne Przeloty (najbliższe 24 godziny)

TLE

ŚwieżeSource: Space-Track

Epoka: Sep 8, 2026, 03:03 UTC

1 16402U 85117F   26251.12751141 -.00000664  00000-0  62809-3 0  9998
2 16402  63.1362  19.7327 7435698 253.9877  19.6954  1.96568670292205

Śledź SL-6 R/B(2) w czasie rzeczywistym z AllMySat

Download on the App Store